Time,TemperatureF,DewpointF,PressureIn,WindDirection,WindDirectionDegrees,WindSpeedMPH,WindSpeedGustMPH,Humidity,HourlyPrecipIn,Conditions,Clouds,dailyrainin,SoftwareType,DateUTC
2013-02-18 00:05:00,43.2,33.0,29.58,SSE,151,4.0,4.0,67,0.00,,,0.00,Wunderground v.1.15,2013-02-18 06:05:00,
2013-02-18 00:15:00,43.1,32.9,29.58,SE,141,6.0,6.0,67,0.00,,,0.00,Wunderground v.1.15,2013-02-18 06:15:00,
2013-02-18 00:20:00,43.0,32.8,29.58,SE,143,5.0,5.0,67,0.00,,,0.00,Wunderground v.1.15,2013-02-18 06:20:00,
2013-02-18 00:30:00,42.9,32.7,29.58,SSE,161,3.0,3.0,67,0.00,,,0.00,Wunderground v.1.15,2013-02-18 06:30:00,
2013-02-18 00:35:00,42.8,32.6,29.57,SSE,163,3.0,3.0,67,0.00,,,0.00,Wunderground v.1.15,2013-02-18 06:35:00,
2013-02-18 00:40:00,42.6,32.4,29.57,SE,146,3.0,4.0,67,0.00,,,0.00,Wunderground v.1.15,2013-02-18 06:40:00,
2013-02-18 00:50:00,42.4,32.6,29.57,SSE,153,4.0,5.0,68,0.00,,,0.00,Wunderground v.1.15,2013-02-18 06:50:00,
2013-02-18 01:00:00,42.1,32.3,29.57,SSE,152,4.0,4.0,68,0.00,,,0.00,Wunderground v.1.15,2013-02-18 07:00:00,
2013-02-18 01:05:00,41.9,32.1,29.56,SSE,150,4.0,7.0,68,0.00,,,0.00,Wunderground v.1.15,2013-02-18 07:05:00,
2013-02-18 01:15:00,41.7,32.3,29.55,SSE,148,5.0,6.0,69,0.00,,,0.00,Wunderground v.1.15,2013-02-18 07:15:00,
2013-02-18 01:20:00,41.5,32.1,29.55,SSE,156,5.0,5.0,69,0.00,,,0.00,Wunderground v.1.15,2013-02-18 07:20:00,
2013-02-18 01:25:00,41.4,32.0,29.55,SE,136,5.0,6.0,69,0.00,,,0.00,Wunderground v.1.15,2013-02-18 07:25:00,
2013-02-18 01:35:00,41.2,32.2,29.55,SSE,161,4.0,4.0,70,0.00,,,0.00,Wunderground v.1.15,2013-02-18 07:35:00,
2013-02-18 01:40:00,41.1,32.1,29.55,SSE,159,4.0,6.0,70,0.00,,,0.00,Wunderground v.1.15,2013-02-18 07:40:00,
2013-02-18 01:50:00,40.9,31.9,29.55,SSE,159,3.0,3.0,70,0.00,,,0.00,Wunderground v.1.15,2013-02-18 07:50:00,
2013-02-18 01:55:00,40.6,31.6,29.58,WNW,290,2.0,14.0,70,0.00,,,0.00,Wunderground v.1.15,2013-02-18 07:55:00,
2013-02-18 02:00:00,40.4,32.1,29.59,NW,308,7.0,14.0,72,0.00,,,0.00,Wunderground v.1.15,2013-02-18 08:00:00,
2013-02-18 02:05:00,40.3,32.3,29.60,WNW,293,9.0,14.0,73,0.00,,,0.00,Wunderground v.1.15,2013-02-18 08:05:00,
2013-02-18 02:15:00,40.2,32.2,29.59,NW,313,5.0,7.0,73,0.00,,,0.00,Wunderground v.1.15,2013-02-18 08:15:00,
2013-02-18 02:25:00,40.0,32.0,29.58,NW,315,3.0,3.0,73,0.00,,,0.00,Wunderground v.1.15,2013-02-18 08:25:00,
2013-02-18 02:30:00,40.0,32.0,29.58,NW,315,1.0,1.0,73,0.00,,,0.00,Wunderground v.1.15,2013-02-18 08:30:00,
2013-02-18 02:40:00,39.8,31.8,29.58,NW,315,0.0,0.0,73,0.00,,,0.00,Wunderground v.1.15,2013-02-18 08:40:00,
2013-02-18 02:50:00,39.6,32.0,29.57,NW,315,0.0,0.0,74,0.00,,,0.00,Wunderground v.1.15,2013-02-18 08:50:00,
2013-02-18 03:00:00,39.2,31.6,29.56,NW,315,0.0,0.0,74,0.00,,,0.00,Wunderground v.1.15,2013-02-18 09:00:00,
2013-02-18 03:05:00,39.1,31.5,29.56,NW,315,0.0,0.0,74,0.00,,,0.00,Wunderground v.1.15,2013-02-18 09:05:00,
2013-02-18 03:15:00,38.7,30.8,29.56,NW,315,0.0,0.0,73,0.00,,,0.00,Wunderground v.1.15,2013-02-18 09:15:00,
2013-02-18 03:25:00,38.3,30.7,29.56,NW,315,0.0,0.0,74,0.00,,,0.00,Wunderground v.1.15,2013-02-18 09:25:00,
2013-02-18 03:30:00,38.1,30.5,29.56,NW,313,1.0,4.0,74,0.00,,,0.00,Wunderground v.1.15,2013-02-18 09:30:00,
2013-02-18 03:40:00,37.5,30.3,29.57,WNW,288,3.0,3.0,75,0.00,,,0.00,Wunderground v.1.15,2013-02-18 09:40:00,
2013-02-18 03:45:00,37.3,30.4,29.57,NW,314,3.0,3.0,76,0.00,,,0.00,Wunderground v.1.15,2013-02-18 09:45:00,
2013-02-18 03:50:00,37.2,30.3,29.58,NW,317,3.0,3.0,76,0.00,,,0.00,Wunderground v.1.15,2013-02-18 09:50:00,
2013-02-18 03:55:00,37.1,30.6,29.58,NW,323,2.0,3.0,77,0.00,,,0.00,Wunderground v.1.15,2013-02-18 09:55:00,
2013-02-18 04:05:00,37.3,31.1,29.58,North,355,5.0,11.0,78,0.00,,,0.00,Wunderground v.1.15,2013-02-18 10:05:00,
2013-02-18 04:15:00,37.4,31.5,29.58,North,360,5.0,9.0,79,0.00,,,0.00,Wunderground v.1.15,2013-02-18 10:15:00,
2013-02-18 04:25:00,37.6,31.7,29.57,North,350,6.0,6.0,79,0.00,,,0.00,Wunderground v.1.15,2013-02-18 10:25:00,
2013-02-18 04:30:00,37.7,31.5,29.57,NNW,342,7.0,11.0,78,0.00,,,0.00,Wunderground v.1.15,2013-02-18 10:30:00,
2013-02-18 04:40:00,38.0,31.7,29.56,NNE,32,8.0,11.0,78,0.00,,,0.00,Wunderground v.1.15,2013-02-18 10:40:00,
2013-02-18 04:45:00,38.0,31.7,29.57,NE,49,8.0,11.0,78,0.00,,,0.00,Wunderground v.1.15,2013-02-18 10:45:00,
2013-02-18 05:00:00,38.5,31.9,29.57,NNE,13,10.0,10.0,77,0.00,,,0.00,Wunderground v.1.15,2013-02-18 11:00:00,
2013-02-18 05:05:00,38.7,32.1,29.57,NNE,12,11.0,11.0,77,0.00,,,0.00,Wunderground v.1.15,2013-02-18 11:05:00,
2013-02-18 05:15:00,38.7,31.8,29.58,NW,319,8.0,10.0,76,0.00,,,0.00,Wunderground v.1.15,2013-02-18 11:15:00,
2013-02-18 05:20:00,38.7,31.8,29.58,NW,315,7.0,10.0,76,0.00,,,0.00,Wunderground v.1.15,2013-02-18 11:20:00,
2013-02-18 05:25:00,38.7,31.8,29.58,NW,311,7.0,15.0,76,0.00,,,0.00,Wunderground v.1.15,2013-02-18 11:25:00,
2013-02-18 05:35:00,38.8,31.9,29.58,NNW,346,9.0,16.0,76,0.00,,,0.00,Wunderground v.1.15,2013-02-18 11:35:00,
2013-02-18 05:45:00,38.9,32.0,29.58,NW,320,10.0,13.0,76,0.00,,,0.00,Wunderground v.1.15,2013-02-18 11:45:00,
2013-02-18 05:50:00,38.9,32.0,29.59,North,355,9.0,11.0,76,0.00,,,0.00,Wunderground v.1.15,2013-02-18 11:50:00,
2013-02-18 06:00:00,38.9,32.0,29.59,WNW,296,9.0,9.0,76,0.00,,,0.00,Wunderground v.1.15,2013-02-18 12:00:00,
2013-02-18 06:05:00,38.8,31.9,29.60,NNW,348,8.0,9.0,76,0.00,,,0.00,Wunderground v.1.15,2013-02-18 12:05:00,
2013-02-18 06:15:00,38.6,32.0,29.62,NE,34,10.0,11.0,77,0.00,,,0.00,Wunderground v.1.15,2013-02-18 12:15:00,
2013-02-18 06:20:00,38.4,31.8,29.62,NNE,29,12.0,14.0,77,0.00,,,0.00,Wunderground v.1.15,2013-02-18 12:20:00,
2013-02-18 06:25:00,38.3,31.7,29.63,North,349,11.0,14.0,77,0.00,,,0.00,Wunderground v.1.15,2013-02-18 12:25:00,
2013-02-18 06:35:00,38.2,31.3,29.62,NW,324,11.0,15.0,76,0.00,,,0.00,Wunderground v.1.15,2013-02-18 12:35:00,
2013-02-18 06:40:00,38.2,31.3,29.62,NNE,15,12.0,12.0,76,0.00,,,0.00,Wunderground v.1.15,2013-02-18 12:40:00,
2013-02-18 06:50:00,38.2,31.0,29.62,North,351,14.0,16.0,75,0.00,,,0.00,Wunderground v.1.15,2013-02-18 12:50:00,
2013-02-18 07:00:00,37.9,31.0,29.63,NNW,343,10.0,12.0,76,0.00,,,0.00,Wunderground v.1.15,2013-02-18 13:00:00,
2013-02-18 07:05:00,37.8,30.9,29.63,North,360,10.0,12.0,76,0.00,,,0.00,Wunderground v.1.15,2013-02-18 13:05:00,
2013-02-18 07:15:00,37.5,30.9,29.64,NNW,328,9.0,9.0,77,0.00,,,0.00,Wunderground v.1.15,2013-02-18 13:15:00,
2013-02-18 07:20:00,37.5,30.9,29.65,NNE,12,9.0,9.0,77,0.00,,,0.00,Wunderground v.1.15,2013-02-18 13:20:00,
2013-02-18 07:30:00,37.3,30.7,29.65,North,5,8.0,14.0,77,0.00,,,0.00,Wunderground v.1.15,2013-02-18 13:30:00,
2013-02-18 07:40:00,37.3,30.7,29.65,NW,325,9.0,12.0,77,0.00,,,0.00,Wunderground v.1.15,2013-02-18 13:40:00,
2013-02-18 07:45:00,37.2,30.7,29.65,North,5,10.0,12.0,77,0.00,,,0.00,Wunderground v.1.15,2013-02-18 13:45:00,
2013-02-18 07:55:00,37.2,31.0,29.65,North,350,9.0,10.0,78,0.00,,,0.00,Wunderground v.1.15,2013-02-18 13:55:00,
2013-02-18 08:00:00,37.3,31.1,29.65,North,9,8.0,8.0,78,0.00,,,0.00,Wunderground v.1.15,2013-02-18 14:00:00,
2013-02-18 08:05:00,37.3,31.1,29.66,NNE,19,7.0,11.0,78,0.00,,,0.00,Wunderground v.1.15,2013-02-18 14:05:00,
2013-02-18 08:15:00,37.5,31.3,29.66,NW,318,8.0,13.0,78,0.00,,,0.00,Wunderground v.1.15,2013-02-18 14:15:00,
2013-02-18 08:20:00,37.7,31.5,29.66,NNW,339,8.0,8.0,78,0.00,,,0.00,Wunderground v.1.15,2013-02-18 14:20:00,
2013-02-18 08:25:00,37.7,31.5,29.67,North,11,8.0,8.0,78,0.00,,,0.00,Wunderground v.1.15,2013-02-18 14:25:00,
2013-02-18 08:30:00,37.8,31.6,29.67,North,10,8.0,8.0,78,0.00,,,0.00,Wunderground v.1.15,2013-02-18 14:30:00,
2013-02-18 08:40:00,37.6,31.4,29.67,NW,316,8.0,8.0,78,0.00,,,0.00,Wunderground v.1.15,2013-02-18 14:40:00,
2013-02-18 08:50:00,37.6,31.4,29.68,NNW,331,6.0,6.0,78,0.00,,,0.00,Wunderground v.1.15,2013-02-18 14:50:00,
2013-02-18 08:55:00,37.6,31.4,29.68,NW,308,7.0,11.0,78,0.00,,,0.00,Wunderground v.1.15,2013-02-18 14:55:00,
2013-02-18 09:05:00,37.5,31.3,29.69,NW,311,6.0,7.0,78,0.00,,,0.00,Wunderground v.1.15,2013-02-18 15:05:00,
2013-02-18 09:15:00,37.5,31.3,29.69,North,360,6.0,7.0,78,0.00,,,0.00,Wunderground v.1.15,2013-02-18 15:15:00,
2013-02-18 09:30:00,37.4,31.2,29.69,NW,318,8.0,8.0,78,0.00,,,0.00,Wunderground v.1.15,2013-02-18 15:30:00,
2013-02-18 09:40:00,37.4,31.2,29.70,NW,323,7.0,7.0,78,0.00,,,0.00,Wunderground v.1.15,2013-02-18 15:40:00,
2013-02-18 09:45:00,37.5,31.3,29.69,NNE,25,8.0,9.0,78,0.00,,,0.00,Wunderground v.1.15,2013-02-18 15:45:00,
2013-02-18 09:50:00,37.5,30.9,29.70,NW,315,8.0,11.0,77,0.00,,,0.00,Wunderground v.1.15,2013-02-18 15:50:00,
2013-02-18 10:00:00,37.5,30.3,29.70,NNW,337,12.0,12.0,75,0.00,,,0.00,Wunderground v.1.15,2013-02-18 16:00:00,
2013-02-18 10:05:00,37.6,30.4,29.70,NNW,328,10.0,12.0,75,0.00,,,0.00,Wunderground v.1.15,2013-02-18 16:05:00,
2013-02-18 10:15:00,37.7,30.2,29.70,WSW,255,13.0,18.0,74,0.00,,,0.00,Wunderground v.1.15,2013-02-18 16:15:00,
2013-02-18 10:25:00,37.5,30.0,29.71,NW,317,15.0,17.0,74,0.00,,,0.00,Wunderground v.1.15,2013-02-18 16:25:00,
2013-02-18 10:30:00,37.4,30.2,29.71,North,355,12.0,15.0,75,0.00,,,0.00,Wunderground v.1.15,2013-02-18 16:30:00,
2013-02-18 10:40:00,37.1,30.2,29.72,NNW,344,11.0,11.0,76,0.00,,,0.00,Wunderground v.1.15,2013-02-18 16:40:00,
2013-02-18 10:50:00,36.5,30.3,29.74,NNW,332,12.0,12.0,78,0.00,,,0.00,Wunderground v.1.15,2013-02-18 16:50:00,
2013-02-18 10:55:00,35.6,29.7,29.75,NW,304,12.0,12.0,79,0.00,,,0.00,Wunderground v.1.15,2013-02-18 16:55:00,
2013-02-18 11:05:00,34.4,29.5,29.75,NNW,329,10.0,11.0,82,0.00,,,0.00,Wunderground v.1.15,2013-02-18 17:05:00,
2013-02-18 12:50:00,31.3,25.2,29.80,NW,317,13.0,13.0,78,0.00,,,0.01,Wunderground v.1.15,2013-02-18 18:50:00,
2013-02-18 12:55:00,31.1,25.0,29.80,NNW,338,16.0,19.0,78,0.00,,,0.01,Wunderground v.1.15,2013-02-18 18:55:00,
2013-02-18 13:05:00,30.4,24.1,29.81,WNW,298,17.0,23.0,77,0.00,,,0.02,Wunderground v.1.15,2013-02-18 19:05:00,
2013-02-18 13:15:00,30.2,24.2,29.81,NNW,346,13.0,15.0,78,0.00,,,0.02,Wunderground v.1.15,2013-02-18 19:15:00,
2013-02-18 13:20:00,30.0,23.7,29.82,NW,308,14.0,21.0,77,0.00,,,0.02,Wunderground v.1.15,2013-02-18 19:20:00,
2013-02-18 13:30:00,29.8,23.2,29.82,WNW,303,16.0,21.0,76,0.00,,,0.02,Wunderground v.1.15,2013-02-18 19:30:00,
2013-02-18 13:35:00,29.8,22.8,29.82,WNW,300,16.0,21.0,75,0.00,,,0.02,Wunderground v.1.15,2013-02-18 19:35:00,
2013-02-18 13:45:00,29.7,22.4,29.83,NNW,330,15.0,17.0,74,0.00,,,0.02,Wunderground v.1.15,2013-02-18 19:45:00,
2013-02-18 13:55:00,29.9,23.3,29.83,WNW,287,12.0,14.0,76,0.00,,,0.02,Wunderground v.1.15,2013-02-18 19:55:00,
2013-02-18 14:05:00,29.6,22.6,29.84,NW,315,13.0,18.0,75,0.00,,,0.02,Wunderground v.1.15,2013-02-18 20:05:00,
2013-02-18 14:15:00,29.2,21.9,29.85,NW,308,15.0,25.0,74,0.00,,,0.02,Wunderground v.1.15,2013-02-18 20:15:00,
2013-02-18 14:25:00,30.1,21.8,29.85,NW,309,18.0,23.0,71,0.00,,,0.02,Wunderground v.1.15,2013-02-18 20:25:00,
2013-02-18 14:30:00,30.3,22.0,29.85,NW,315,15.0,15.0,71,0.00,,,0.02,Wunderground v.1.15,2013-02-18 20:30:00,
2013-02-18 14:40:00,29.8,20.9,29.85,NNW,343,18.0,18.0,69,0.00,,,0.02,Wunderground v.1.15,2013-02-18 20:40:00,
2013-02-18 14:50:00,29.8,21.5,29.85,NNW,338,15.0,20.0,71,0.00,,,0.02,Wunderground v.1.15,2013-02-18 20:50:00,
2013-02-18 14:55:00,29.6,21.0,29.85,NW,306,17.0,20.0,70,0.00,,,0.02,Wunderground v.1.15,2013-02-18 20:55:00,
2013-02-18 15:00:00,29.4,20.5,29.86,NNW,333,18.0,22.0,69,0.00,,,0.02,Wunderground v.1.15,2013-02-18 21:00:00,
2013-02-18 15:05:00,29.2,20.3,29.86,WNW,302,16.0,22.0,69,0.00,,,0.02,Wunderground v.1.15,2013-02-18 21:05:00,
2013-02-18 15:15:00,29.2,20.6,29.86,NW,309,14.0,22.0,70,0.00,,,0.02,Wunderground v.1.15,2013-02-18 21:15:00,
2013-02-18 15:25:00,30.1,21.5,29.86,NW,317,15.0,15.0,70,0.00,,,0.02,Wunderground v.1.15,2013-02-18 21:25:00,
2013-02-18 15:30:00,29.9,20.3,29.86,WNW,294,15.0,19.0,67,0.00,,,0.02,Wunderground v.1.15,2013-02-18 21:30:00,
2013-02-18 15:40:00,30.7,20.3,29.87,West,263,17.0,17.0,65,0.00,,,0.02,Wunderground v.1.15,2013-02-18 21:40:00,
2013-02-18 15:50:00,30.5,19.0,29.87,WNW,302,18.0,22.0,62,0.00,,,0.02,Wunderground v.1.15,2013-02-18 21:50:00,
2013-02-18 16:00:00,29.7,18.6,29.87,NNW,331,20.0,20.0,63,0.00,,,0.02,Wunderground v.1.15,2013-02-18 22:00:00,
2013-02-18 16:05:00,29.8,18.7,29.88,WNW,302,17.0,20.0,63,0.00,,,0.02,Wunderground v.1.15,2013-02-18 22:05:00,
2013-02-18 16:15:00,29.4,18.0,29.88,West,280,19.0,19.0,62,0.00,,,0.02,Wunderground v.1.15,2013-02-18 22:15:00,
2013-02-18 16:20:00,28.9,17.5,29.88,North,355,19.0,19.0,62,0.00,,,0.02,Wunderground v.1.15,2013-02-18 22:20:00,
2013-02-18 16:30:00,28.7,17.7,29.89,West,273,19.0,20.0,63,0.00,,,0.02,Wunderground v.1.15,2013-02-18 22:30:00,
2013-02-18 16:35:00,28.5,17.5,29.89,NW,308,20.0,20.0,63,0.00,,,0.02,Wunderground v.1.15,2013-02-18 22:35:00,
2013-02-18 16:45:00,28.5,17.5,29.90,WNW,296,15.0,18.0,63,0.00,,,0.02,Wunderground v.1.15,2013-02-18 22:45:00,
2013-02-18 16:55:00,28.6,18.0,29.90,NW,306,14.0,16.0,64,0.00,,,0.02,Wunderground v.1.15,2013-02-18 22:55:00,
2013-02-18 17:05:00,28.3,17.3,29.90,WNW,295,18.0,22.0,63,0.00,,,0.02,Wunderground v.1.15,2013-02-18 23:05:00,
2013-02-18 17:15:00,28.1,17.1,29.91,NW,325,17.0,23.0,63,0.00,,,0.02,Wunderground v.1.15,2013-02-18 23:15:00,
2013-02-18 17:20:00,27.9,16.9,29.91,NW,315,17.0,30.0,63,0.00,,,0.02,Wunderground v.1.15,2013-02-18 23:20:00,
2013-02-18 17:30:00,27.7,17.1,29.91,NW,309,19.0,26.0,64,0.00,,,0.02,Wunderground v.1.15,2013-02-18 23:30:00,
2013-02-18 17:40:00,27.5,17.3,29.93,WNW,303,19.0,19.0,65,0.00,,,0.02,Wunderground v.1.15,2013-02-18 23:40:00,
2013-02-18 17:50:00,27.2,17.3,29.93,WNW,296,17.0,19.0,66,0.00,,,0.02,Wunderground v.1.15,2013-02-18 23:50:00,
2013-02-18 18:00:00,26.9,17.4,29.93,NW,304,12.0,19.0,67,0.00,,,0.02,Wunderground v.1.15,2013-02-19 00:00:00,
2013-02-18 18:05:00,26.7,17.2,29.94,NW,313,13.0,19.0,67,0.00,,,0.02,Wunderground v.1.15,2013-02-19 00:05:00,
2013-02-18 18:10:00,26.5,17.0,29.94,NW,315,14.0,14.0,67,0.00,,,0.02,Wunderground v.1.15,2013-02-19 00:10:00,
2013-02-18 18:20:00,26.2,17.1,29.95,NW,314,12.0,12.0,68,0.00,,,0.02,Wunderground v.1.15,2013-02-19 00:20:00,
2013-02-18 18:30:00,25.7,16.6,29.96,WNW,303,12.0,15.0,68,0.00,,,0.02,Wunderground v.1.15,2013-02-19 00:30:00,
2013-02-18 18:40:00,25.3,16.5,29.96,NNW,333,12.0,12.0,69,0.00,,,0.02,Wunderground v.1.15,2013-02-19 00:40:00,
2013-02-18 18:50:00,25.0,16.3,29.96,WNW,290,13.0,13.0,69,0.00,,,0.02,Wunderground v.1.15,2013-02-19 00:50:00,
2013-02-18 19:00:00,24.9,16.2,29.97,WNW,300,13.0,13.0,69,0.00,,,0.02,Wunderground v.1.15,2013-02-19 01:00:00,
2013-02-18 19:05:00,24.9,16.2,29.97,NW,312,14.0,14.0,69,0.00,,,0.02,Wunderground v.1.15,2013-02-19 01:05:00,
2013-02-18 19:15:00,24.9,16.2,29.98,NW,309,14.0,19.0,69,0.00,,,0.02,Wunderground v.1.15,2013-02-19 01:15:00,
2013-02-18 19:25:00,24.8,16.4,29.98,WNW,293,13.0,16.0,70,0.00,,,0.02,Wunderground v.1.15,2013-02-19 01:25:00,
2013-02-18 19:35:00,24.7,16.3,29.99,NW,309,13.0,18.0,70,0.00,,,0.02,Wunderground v.1.15,2013-02-19 01:35:00,
2013-02-18 19:40:00,24.5,16.1,29.99,WNW,302,11.0,11.0,70,0.00,,,0.02,Wunderground v.1.15,2013-02-19 01:40:00,
2013-02-18 19:50:00,24.2,15.8,29.99,NW,309,12.0,14.0,70,0.00,,,0.02,Wunderground v.1.15,2013-02-19 01:50:00,
2013-02-18 20:00:00,23.9,15.2,30.00,WNW,290,9.0,15.0,69,0.00,,,0.02,Wunderground v.1.15,2013-02-19 02:00:00,
2013-02-18 20:05:00,23.7,15.0,30.00,NNW,332,11.0,15.0,69,0.00,,,0.02,Wunderground v.1.15,2013-02-19 02:05:00,
2013-02-18 20:10:00,23.5,14.8,30.01,WNW,291,11.0,11.0,69,0.00,,,0.02,Wunderground v.1.15,2013-02-19 02:10:00,
2013-02-18 20:25:00,22.8,14.5,30.01,NW,317,15.0,15.0,70,0.00,,,0.02,Wunderground v.1.15,2013-02-19 02:25:00,
2013-02-18 20:35:00,22.5,14.2,30.01,NW,309,12.0,14.0,70,0.00,,,0.02,Wunderground v.1.15,2013-02-19 02:35:00,
2013-02-18 20:45:00,22.2,13.9,30.02,NW,306,11.0,14.0,70,0.00,,,0.02,Wunderground v.1.15,2013-02-19 02:45:00,
2013-02-18 20:55:00,21.9,13.6,30.02,NW,309,11.0,12.0,70,0.00,,,0.02,Wunderground v.1.15,2013-02-19 02:55:00,
2013-02-18 21:05:00,21.7,13.4,30.02,WNW,286,9.0,13.0,70,0.00,,,0.02,Wunderground v.1.15,2013-02-19 03:05:00,
2013-02-18 21:15:00,21.5,13.2,30.03,WNW,288,11.0,11.0,70,0.00,,,0.02,Wunderground v.1.15,2013-02-19 03:15:00,
2013-02-18 21:20:00,21.4,13.1,30.03,NNW,331,12.0,15.0,70,0.00,,,0.02,Wunderground v.1.15,2013-02-19 03:20:00,
2013-02-18 21:30:00,21.3,13.0,30.03,NW,321,11.0,11.0,70,0.00,,,0.02,Wunderground v.1.15,2013-02-19 03:30:00,
2013-02-18 21:35:00,21.2,12.9,30.04,WNW,293,9.0,14.0,70,0.00,,,0.02,Wunderground v.1.15,2013-02-19 03:35:00,
2013-02-18 21:45:00,21.0,13.1,30.05,WNW,301,9.0,13.0,71,0.00,,,0.02,Wunderground v.1.15,2013-02-19 03:45:00,
2013-02-18 21:50:00,20.9,13.0,30.05,NNW,336,10.0,13.0,71,0.00,,,0.02,Wunderground v.1.15,2013-02-19 03:50:00,
2013-02-18 22:00:00,20.9,13.3,30.05,NW,311,13.0,13.0,72,0.00,,,0.02,Wunderground v.1.15,2013-02-19 04:00:00,
2013-02-18 22:05:00,20.9,13.3,30.05,NW,321,12.0,13.0,72,0.00,,,0.02,Wunderground v.1.15,2013-02-19 04:05:00,
2013-02-18 22:15:00,20.8,13.2,30.06,WNW,302,11.0,11.0,72,0.00,,,0.02,Wunderground v.1.15,2013-02-19 04:15:00,
2013-02-18 22:25:00,20.6,13.3,30.06,WNW,302,12.0,12.0,73,0.00,,,0.02,Wunderground v.1.15,2013-02-19 04:25:00,
2013-02-18 22:35:00,20.5,13.2,30.07,NW,306,10.0,15.0,73,0.00,,,0.02,Wunderground v.1.15,2013-02-19 04:35:00,
2013-02-18 22:40:00,20.5,13.2,30.07,NW,319,10.0,14.0,73,0.00,,,0.02,Wunderground v.1.15,2013-02-19 04:40:00,
2013-02-18 22:50:00,20.5,13.5,30.07,WNW,295,12.0,12.0,74,0.00,,,0.02,Wunderground v.1.15,2013-02-19 04:50:00,
2013-02-18 23:00:00,20.7,14.0,30.07,WNW,284,12.0,12.0,75,0.00,,,0.02,Wunderground v.1.15,2013-02-19 05:00:00,
2013-02-18 23:05:00,20.8,14.1,30.08,NW,304,13.0,15.0,75,0.00,,,0.02,Wunderground v.1.15,2013-02-19 05:05:00,
2013-02-18 23:10:00,20.9,14.2,30.08,WNW,296,12.0,12.0,75,0.00,,,0.02,Wunderground v.1.15,2013-02-19 05:10:00,
2013-02-18 23:15:00,21.0,14.3,30.08,West,275,12.0,12.0,75,0.00,,,0.02,Wunderground v.1.15,2013-02-19 05:15:00,
2013-02-18 23:20:00,21.1,14.4,30.08,WNW,286,11.0,12.0,75,0.00,,,0.02,Wunderground v.1.15,2013-02-19 05:20:00,
2013-02-18 23:25:00,21.2,14.5,30.08,NW,324,12.0,12.0,75,0.00,,,0.02,Wunderground v.1.15,2013-02-19 05:25:00,
2013-02-18 23:35:00,21.3,14.6,30.08,NW,323,13.0,16.0,75,0.00,,,0.02,Wunderground v.1.15,2013-02-19 05:35:00,
2013-02-18 23:45:00,21.4,14.7,30.08,NW,304,12.0,20.0,75,0.00,,,0.02,Wunderground v.1.15,2013-02-19 05:45:00,
2013-02-18 23:55:00,21.3,14.6,30.08,WNW,296,11.0,18.0,75,0.00,,,0.02,Wunderground v.1.15,2013-02-19 05:55:00,